Weather in Hamm

Germany     51°40′43″N   7°49′02″E
temp.,
°C
wind,
m/s
gust,
m/s
humid.,
%
clouds,
%
prec.,
mm/h
press.,
hPa
HPBL,
m
23 september, thu
thu2323:00+13sw337363 0.0 102545
02:00+12sw36794 0.0 102383
05:00+11sw378598 0.0 1021121
08:00+12sw5138631 0.0 1020362
11:00+17wsw81460100 0.0 1018862
14:00+20wsw91254100 0.0 10161323
17:00+20w8135890 0.0 10151422
20:00+15wnw6128213 0.0 1016809
24 september, fri
fri2423:00+14wnw51079100 0.1 1017656
02:00+14w51079100 0.1 1017525
05:00+13w3879100 0.0 1017458
08:00+14wsw4880100 0.0 1017414
11:00+16wsw587693 0.0 1017554
14:00+20wsw796069 0.0 10151283
17:00+21w685872 0.0 10141489
20:00+19wsw4965100 0.0 1015401
25 september, sat
sat2523:00+15wsw38870 0.0 1016165
02:00+14sw37900 0.0 1016129
05:00+13sw37940 0.0 1015158
08:00+12sw38962 0.0 1016236
11:00+18wsw45640 0.0 1017650
14:00+22wsw33475 0.0 10161012
17:00+22w12421 0.0 10151209
20:00+16ene22615 0.0 101611
26 september, sun
sun2623:00+14ese32723 0.0 101619
02:00+13ese33807 0.0 101626
05:00+13ese238286 0.0 101523
08:00+14se227487 0.0 101526
11:00+18sse126575 0.0 101595
14:00+24ssw24505 0.0 10141076
17:00+25sw345327 0.0 10131486
20:00+18sw4990100 4.0 1014220
27 september, mon
mon2723:00+17ssw369355 3.4 1015134
02:00+16s3691100 3.4 1015106
05:00+15ssw36925 0.0 1015103
08:00+14ssw4993100 0.0 1015221
11:00+19sw61072100 0.0 1016762
14:00+22sw7958100 0.1 10161604
17:00+15w61187100 1.6 1019612
20:00+12w36916 1.6 1023267